Location: Unspecified
(45.7810°N, 0.0000°E)
Time: 22:24:53
(UTC+00:00)

OTV 5 (USA 277) - Visible Passes

Search period start: 13 October 2019 00:00
Search period end: 23 October 2019 00:00
Orbit: 310 x 324 km, 54.5° (Epoch: 08 October)

Date Brightness Start Highest point End Pass type
(mag) Time Alt. Az. Time Alt. Az. Time Alt. Az.
13 Oct ? 04:55:39 11° NNW 04:57:06 15° N 04:58:49 10° NE visible
14 Oct ? 05:09:49 10° NNW 05:11:57 20° NNE 05:14:04 10° ENE visible
15 Oct ? 03:53:05 11° NE 03:53:05 11° NE 03:53:20 10° NE visible
15 Oct ? 05:24:13 10° NW 05:26:44 31° NNE 05:29:13 10° E visible
16 Oct ? 04:07:19 16° NNE 04:07:19 16° NNE 04:08:33 10° ENE visible
16 Oct ? 05:38:38 10° NW 05:41:24 65° NNE 05:44:06 10° ESE visible
17 Oct ? 04:21:38 24° NNE 04:21:38 24° NNE 04:23:47 10° E visible
18 Oct ? 04:36:01 42° NNE 04:36:11 42° NNE 04:38:50 10° ESE visible
19 Oct ? 04:50:31 68° W 04:50:47 80° SW 04:53:31 10° SE visible
20 Oct ? 05:05:08 29° SW 05:05:15 29° SW 05:07:41 10° SSE visible
21 Oct ? 05:19:54 12° SW 05:19:54 12° SW 05:20:49 10° SSW visible
